Regional Weather Roundup
Issued by NWS

Home | Current Version | Previous Version | Graphics & Text | Print | Product List | Glossary On
Versions: 1 2 3 4 5 6 7 8 9 10 11 12 13 14 15 16 17 18 19 20 21 22 23 24 25 26 27 28 29 30 31 32 33 34 35 36 37 38 39 40 41 42 43 44 45 46 47 48 49 50
000
ASUS43 KMPX 290201
RWRMN
WEATHER ROUNDUP FOR MINNESOTA
NATIONAL WEATHER SERVICE TWIN CITIES/CHANHASSEN MN
900 PM CDT SAT MAR 28 2015


NOTE: "FAIR" INDICATES FEW OR NO CLOUDS BELOW 12,000 FEET WITH NO
SIGNIFICANT WEATHER AND/OR OBSTRUCTIONS TO VISIBILITY. N/A MEANS
CURRENT SKY AND/OR WEATHER CONDITIONS ARE NOT AVAILABLE.

MNZ060>063-068>070-290300-
   Twin Cities Metro

CITY           SKY/WX    TMP DP  RH WIND       PRES   REMARKS
TWIN CITIES    PTCLDY    35  21  56 SE13      30.04F WCI  26
ST PAUL        CLEAR     35  21  56 SE13      30.06F WCI  26
CRYSTAL        CLEAR     37  21  52 SE14      30.02S
BLAINE         CLEAR     37  21  52 SE10      30.02F
LAKEVILLE      CLEAR     32  23  69 SE7       30.04S WCI  26
EDEN PRAIRIE   FAIR      34  23  64 SE12      30.02S WCI  25
SOUTH ST PAUL  FAIR      36  21  55 SE8       30.06R
LAKE ELMO      FAIR      34  21  60 SE9       30.06S WCI  26
$$
MNZ001>005-007-008-013>017-022>024-027-028-290300-
   Northwest Minnesota

CITY           SKY/WX    TMP DP  RH WIND       PRES   REMARKS
BEMIDJI        MOCLDY    37  26  65 S14G21    29.78F
HALLOCK        CLOUDY    43  30  61 S21       29.59F
ROSEAU         MOCLDY    41  30  65 S17G33    29.65F
WARROAD        CLOUDY    39  28  65 S15G24    29.67F
THIEF RVR FALL PTCLDY    39  28  65 S20G28    29.67F
CROOKSTON      PTCLDY    43  30  61 S29G35    29.66F
FOSSTON        PTCLDY    37  27  65 S21G29    29.72F
DETROIT LAKES  MOCLDY    39  30  70 S21G29    29.77F
MOORHEAD       FAIR      45  32  61 S24G36    29.72F
PARK RAPIDS    PTCLDY    40  26  57 S20       29.81F
MAHNOMEN       FAIR      39  28  66 S20G25    29.74F
$$
MNZ006-009>011-018-025>026-290300-
   North Central Minnesota

CITY           SKY/WX    TMP DP  RH WIND       PRES   REMARKS
BAUDETTE       CLOUDY    40  24  53 S15G23    29.71F
FLAG ISLAND    CLOUDY    34  28  80 S16       29.66F WCI  23
INTL FALLS     CLOUDY    40  19  43 S12G23    29.77F
WASKISH        CLOUDY    39  27  60 S9G22     29.76F
BIG FORK       MOCLDY    39  21  48 S17G23    29.82F
LONGVILLE      MOCLDY    37  23  56 S15G23    29.85F
GRAND RAPIDS   PTCLDY    36  19  51 S14G26    29.87F
CRANE LAKE     PTCLDY    37  16  41 S7G17     29.86F
ORR            MOCLDY    37  16  41 S13G24    29.81F
COOK           PTCLDY    37  18  44 S12G18    29.86F
WALKER         FAIR      37  24  60 S15       29.81F
$$
MNZ012-019>021-037-290300-
   Northeast Minnesota

CITY           SKY/WX    TMP DP  RH WIND       PRES   REMARKS
DULUTH         PTCLDY    36  15  42 S17       29.94F
ELY            CLEAR     36  12  38 S10       29.89S
HIBBING        PTCLDY    36  16  44 S6        29.89S
EVELETH        CLEAR     36  19  51 S8        29.90F
DULUTH HARBOR  PTCLDY    39  18  41 S13       29.98F
TWO HARBORS    MOCLDY    39  21  48 SW13      29.94F
SILVER BAY     MOCLDY    28  18  64 CALM      29.94F
GRAND MARAIS     N/A     28  19  69 CALM      30.00F
G MARAIS ARPRT MOCLDY    25  12  58 SE5       29.94F WCI  19
$$
MNZ029>031-032-039>041-046>048-054>057-064-290300-
   West Central Minnesota

CITY           SKY/WX    TMP DP  RH WIND       PRES   REMARKS
FERGUS FALLS   CLEAR     39  27  60 SE20G25   29.80F
WHEATON        CLEAR     39  28  65 SE15      29.79F
MORRIS         CLEAR     39  30  70 SE16      29.82F
ALEXANDRIA     PTCLDY    38  27  64 S20       29.85F
ELBOW LAKE     FAIR      39  30  71 SE22G28   29.80F
WADENA         PTCLDY    37  27  65 S16       29.83F
GLENWOOD       MOCLDY    39  28  65 SE17G24   29.87F
APPLETON       CLEAR     45  28  53 S13       29.84F
BENSON         PTCLDY    41  28  60 S14       29.86F
ORTONVILLE     CLEAR     45  28  53 SE12G17   29.80F
MADISON        CLEAR     45  27  49 S15       29.83F
WILLMAR        FAIR      39  28  65 SE13      29.92F
$$
MNZ033>034-036-042>043-049>051-058-059-290300-
   Central Minnesota

CITY           SKY/WX    TMP DP  RH WIND       PRES   REMARKS
ST CLOUD       MOCLDY    36  24  62 SE18      29.94F
SAUK CENTRE    FAIR      37  28  71 SE14G20   29.89F
PAYNESVILLE    CLOUDY    36  26  68 E13G21    29.92F
AITKIN         PTCLDY    39  23  52 S13G18    29.89F
PINE RIVER     MOCLDY    37  25  60 S12G18    29.90F
BRAINERD       MOCLDY    36  22  56 S13       29.90F
STAPLES        CLOUDY    37  25  60 S12G18    29.86F
LONG PRAIRIE   FAIR      36  28  75 SE16      29.88F
LITTLE FALLS   CLOUDY    37  23  56 SE12      29.91F
LITCHFIELD     MOCLDY    39  27  60 SE10      29.95F
MAPLE LAKE     FAIR      37  28  70 SE12G18   29.98F
$$
MNZ037-044-045-052-053-290300-
   East Central Minnesota

CITY           SKY/WX    TMP DP  RH WIND       PRES   REMARKS
PRINCETON      PTCLDY    37  23  56 SE12G18   29.99F
MORA           MOCLDY    36  23  60 S9        30.00F
CAMBRIDGE      PTCLDY    37  23  56 SE13      29.99F
RUSH CITY      PTCLDY    35  22  58 S9        30.02F WCI  28
MOOSE LAKE     PTCLDY    34  14  44 S12G17    29.94F WCI  25
HINCKLEY       FAIR      36  23  60 S10       29.99F
CLOQUET        PTCLDY    36  12  38 S10       29.94F
MCGREGOR       PTCLDY    36  23  60 S12       29.92F
$$
MNZ071>073-080-081-089-090-097-098-290300-
   Southwest Minnesota

CITY           SKY/WX    TMP DP  RH WIND       PRES   REMARKS
MONTEVIDEO     CLEAR     43  30  61 S14G20    29.87F
GRANITE FALLS  CLEAR     41  30  64 SE16      29.90F
CANBY          CLEAR     45  27  50 S10       29.85F
MARSHALL       CLEAR     43  27  52 S17       29.88F
REDWOOD FALLS  CLEAR     41  28  60 S18       29.92F
OLIVIA         PTCLDY    37  28  70 SE12      29.91F
PIPESTONE      CLEAR     41  28  60 S15       29.87F
WINDOM         CLEAR     43  27  52 S14G20    29.95S
WORTHINGTON    CLEAR     41  27  56 S16G22    29.94F
JACKSON        CLEAR     41  27  56 S16G22    29.97F
TRACY          CLEAR     44  29  55 S13       29.89F
SLAYTON        CLEAR     39  26  58 S15       29.91S
$$
MNZ065>067-074>077-082>085-091>093-290300-
   South Central Minnesota

CITY           SKY/WX    TMP DP  RH WIND       PRES   REMARKS
MANKATO        CLEAR     39  23  52 S15       30.01F
NEW ULM        CLEAR     39  25  56 S14       29.98S
ST JAMES       CLEAR     39  27  60 SE10      29.99F
FAIRMONT       CLEAR     37  16  41 S14       29.99F
GLENCOE        PTCLDY    38  30  71 SE10      29.98F
FARIBAULT      CLEAR     36  27  69 SE9       30.04F
OWATONNA       CLEAR     37  25  60 SE13      30.04F
WASECA         CLEAR     37  25  60 SE10      30.05S
ALBERT LEA     CLEAR     37  21  52 S13G18    30.05S
$$
MNZ078>079-086>088-094>096-290300-
   Southeast Minnesota

CITY           SKY/WX    TMP DP  RH WIND       PRES   REMARKS
ROCHESTER      CLEAR     32  21  64 S13       30.08F WCI  22
RED WING       CLEAR     36  18  48 SE8       30.08F
STANTON        CLEAR     36  22  56 SE10      30.04S
DODGE CENTER   PTCLDY    30  25  80 S9        30.06S WCI  22
WINONA         CLEAR     34  19  55 SE7       30.14S WCI  28
AUSTIN         CLEAR     36  21  55 S9        30.07F
PRESTON        CLEAR     32  20  60 S12       30.10F WCI  23
$$
ABBREVIATIONS USED IN REMARKS
   TC - TEMPERATURES IN CELSIUS
  WCI - WIND CHILL INDEX
   HX - HEAT INDEX
  VSB - VISIBILITY
$$



USA.gov is the U.S. government's official web portal to all federal, state and local government web resources and services.